WBGRWBGG

Guest
Details From WBGR - Miri
To WBGG - Kuching Intl
Flight Number -
Tags decoded
Created
Modified
Stats Distance 277 nm / 513 km
Max Altitude 0 ft / 0 m
Waypoints 4
Social Downloads 2
Likes 0
Share VATSIM

Download

Looking for another format? Having issues loading an existing format? Contact us
Advertisement - Login to hide

Notes

Requested: WBGR EGOBA SARVO G580 PILAX WBGG Unmatched points: EGOBA

Route

WBGR SARVO G580 PILAX WBGG

ID Type Via Altitude Latitude Longitude Leg Dist Tot Dist Heading (true) Name
O WBGR APT - 0 ft / 0 m 4.32207˚ 113.98681˚ - 0 nm - Miri
SARVO FIX - 0 ft / 0 m 3.44167˚ 112.83611˚ 86 nm 86 nm 233° / 232° -
PILAX FIX G580 (AWY-HI) 0 ft / 0 m 2.31889˚ 111.38528˚ 110 nm 196 nm 232° / 232° -
O WBGG APT - 0 ft / 0 m 1.48470˚ 110.34693˚ 79 nm 276 nm 231° / 231° Kuching Intl

Altitude Profile

Advertisement - Login to hide

Weather


0- 5 10 15 20 25 30 35+ Temperature / ° C

Clouds and Precipitation
Forecast for 2018-05-26 00:00 UTC. Updated 4 hours ago

Ground ~20,000 ft ~40,000 ft Winds

WBGR

Details ICAO WBGR (MYY)
Name Miri
Region Brunei and Malaysia
Timezone Asia/Kuching (UTC+8.0)
Stats Elevation 59 ft / 18 m (AMSL)
Location 4.322068° 113.986806°
Runways 1
Magnetic Variation 0.115° W

METAR

WBGR 260200Z 26005KT 230V300 9999 SCT016 BKN300 30/26 Q1009

Decode

TAF

TAF WBGR 251700Z 2518/2618 VRB03KT 9999 SCT014 TEMPO 2606/2610 4000 TSRA SCT014 FEW015CB

Decode

Departure Runways

ID Width Length Bearing (true) Bearing (mag) Surface Threshold Offset Overrun Length
02 197 ft / 60 m 9,040 ft / 2,755 m 24.85° 24.97° Asphalt 0 ft / 0 m 200 ft / 61 m
20 197 ft / 60 m 9,040 ft / 2,755 m 204.85° 204.97° Asphalt 0 ft / 0 m 200 ft / 61 m

WBGG

Details ICAO WBGG (KCH)
Name Kuching Intl
Region Brunei and Malaysia
Timezone Asia/Kuching (UTC+8.0)
Stats Elevation 89 ft / 27 m (AMSL)
Location 1.484698° 110.346932°
Runways 1
Magnetic Variation 0.333° E

METAR

WBGG 260230Z 19007KT 160V220 9999 FEW002 FEW015CB SCT020 BKN150 27/25 Q1009 NOSIG

Decode

TAF

TAF TAF WBGG 251700Z 2518/2618 23005KT 9999 SCT020 TEMPO 2519/2523 5000 RA SCT020 TEMPO 2607/2611 3000 TSRA FEW015CB

Decode

Destination Runways

ID Width Length Bearing (true) Bearing (mag) Surface Threshold Offset Overrun Length
07 151 ft / 46 m 8,012 ft / 2,442 m 68.26° 67.93° Asphalt 0 ft / 0 m 0 ft / 0 m
25 151 ft / 46 m 8,012 ft / 2,442 m 248.26° 247.93° Asphalt 320 ft / 98 m 0 ft / 0 m

Approach Navaids

Runway Type Ident Frequency Range Bearing (true) Bearing (mag) Slope Elevation
25 Localiser IKG 110.30 MHz 18 nm / 33 km 248.23° 247.89° - 89 ft / 27 m (AMSL)
25 Glidescope IKG 110.30 MHz 10 nm / 19 km 248.26° 247.93° 3.00° 89 ft / 27 m (AMSL)
25 DME IKG 110.30 MHz 18 nm / 33 km - - - 89 ft / 27 m (AMSL)

Popular Alternatives